(°C)
-4°
-4°
-4°
-4°
-4°
-4°
-3°
(°C)
-9°
-9°
-9°
-9°
-9°
-9°
-8°
JZ
JZ
JZ
JJZ
JJZ
JJZ
JJZ
(km/h)
7-18
7-17
7-16
7-16
7-17
7-17
7-18
(mm)
0
0
0
0
0
0
0
(%)
0
0
0
0
0
0
0

Výška Slnka nad obzorom

/ -40°
sun-icon
UV 1
08:09
17:49
Zmenšujúci sa polmesiac (266°)
22:34
15:44

Správy METAR pre lokalitu 55.27°S 86.11°V (UNEE)

Čas Podmienky Teplota/
Rosný bod
Vietor Viditeľnosť Počasie Oblaky Tlak Zmeniť Nespracované
VFR -5°C / -9°C 230º 8kt >10km - Clouds and Visibility OK 1025 No Significant change UNEE 272000Z 23004MPS CAVOK M05/M09 Q1025 R23/CLRD60 NOSIG RMK QFE746
VFR -4°C / -9°C 230º 8kt >10km - Clouds and Visibility OK 1025 No Significant change UNEE 271930Z 23004MPS CAVOK M04/M09 Q1025 R23/CLRD60 NOSIG RMK QFE746
VFR -5°C / -9°C 220º 8kt >10km - Clouds and Visibility OK 1025 No Significant change UNEE 271900Z 22004MPS CAVOK M05/M09 Q1025 R23/CLRD60 NOSIG RMK QFE746
VFR -6°C / °C 220º 8kt >10km - Clouds and Visibility OK 1025 No Significant change UNEE 271830Z 22004MPS CAVOK M06/M10 Q1025 R23/CLRD60 NOSIG RMK QFE746
VFR -4°C / °C 210º 6kt >10km - Clouds and Visibility OK 1025 No Significant change UNEE 271800Z 21003MPS CAVOK M04/M10 Q1025 R23/CLRD60 NOSIG RMK QFE745
VFR -4°C / °C 210º 6kt >10km - Clouds and Visibility OK 1025 No Significant change UNEE 271730Z 21003MPS CAVOK M04/M10 Q1025 R23/CLRD60 NOSIG RMK QFE745
VFR -5°C / °C 220º 8kt >10km - Clouds and Visibility OK 1025 No Significant change UNEE 271700Z 22004MPS CAVOK M05/M10 Q1025 R23/CLRD60 NOSIG RMK QFE745
VFR -5°C / °C 230º 6kt >10km - Clouds and Visibility OK 1025 No Significant change UNEE 271630Z 23003MPS CAVOK M05/M10 Q1025 R23/CLRD60 NOSIG RMK QFE745
VFR -3°C / -9°C 240º 6kt >10km - Clouds and Visibility OK 1024 No Significant change UNEE 271600Z 24003MPS CAVOK M03/M09 Q1024 R23/CLRD60 NOSIG RMK QFE745
VFR -2°C / -9°C 240º 6kt >10km - Clouds and Visibility OK 1024 No Significant change UNEE 271530Z 24003MPS CAVOK M02/M09 Q1024 R23/CLRD60 NOSIG RMK QFE745
VFR -2°C / °C 240º 8kt >10km - Clouds and Visibility OK 1024 No Significant change UNEE 271500Z 24004MPS CAVOK M02/M10 Q1024 R23/CLRD60 NOSIG RMK QFE745
VFR -2°C / °C 230º 8kt >10km - Clouds and Visibility OK 1024 No Significant change UNEE 271430Z 23004MPS CAVOK M02/M10 Q1024 R23/CLRD60 NOSIG RMK QFE745
VFR -2°C / °C 200º 4kt >10km - Clouds and Visibility OK 1024 No Significant change UNEE 271400Z 20002MPS CAVOK M02/M10 Q1024 R23/CLRD60 NOSIG RMK QFE745
VFR -2°C / °C 200º 4kt >10km - Clouds and Visibility OK 1024 No Significant change UNEE 271330Z 20002MPS CAVOK M02/M10 Q1024 R23/CLRD60 NOSIG RMK QFE745
VFR -2°C / °C 230º 4kt >10km - Clouds and Visibility OK 1024 No Significant change UNEE 271300Z 23002MPS CAVOK M02/M10 Q1024 R23/CLRD60 NOSIG RMK QFE745
VFR -2°C / °C 190º 4kt >10km - Clouds and Visibility OK 1023 No Significant change UNEE 271230Z 19002MPS CAVOK M02/M10 Q1023 R23/CLRD60 NOSIG RMK QFE744
VFR -2°C / °C 230º 6kt >10km - Clouds and Visibility OK 1024 No Significant change UNEE 271200Z 23003MPS CAVOK M02/M11 Q1024 R23/CLRD60 NOSIG RMK QFE745
VFR -2°C / °C 230º 6kt >10km - Clouds and Visibility OK 1024 No Significant change UNEE 271130Z 23003MPS CAVOK M02/M10 Q1024 R23/CLRD60 NOSIG RMK QFE745
VFR -1°C / °C 220º 6kt >10km - Clouds and Visibility OK 1023 No Significant change UNEE 271100Z 22003MPS CAVOK M01/M11 Q1023 R23/CLRD60 NOSIG RMK QFE744
VFR -1°C / °C 240º 8kt >10km - Clouds and Visibility OK 1023 No Significant change UNEE 271030Z 24004MPS CAVOK M01/M11 Q1023 R23/CLRD60 NOSIG RMK QFE744
VFR 0°C / °C 230º 10kt >10km - Clouds and Visibility OK 1023 No Significant change UNEE 271000Z 23005MPS CAVOK M00/M11 Q1023 R23/CLRD60 NOSIG RMK QFE744
VFR 0°C / °C 250º 10kt >10km - Clouds and Visibility OK 1023 No Significant change UNEE 270930Z 25005MPS CAVOK 00/M11 Q1023 R23/CLRD60 NOSIG RMK QFE744
VFR 1°C / °C 250º 10kt >10km - Clouds and Visibility OK 1023 No Significant change UNEE 270900Z 25005MPS CAVOK 01/M11 Q1023 R23/CLRD60 NOSIG RMK QFE744
VFR 1°C / °C 250º 10kt >10km - Clouds and Visibility OK 1023 No Significant change UNEE 270830Z 25005MPS CAVOK 01/M11 Q1023 R23/CLRD60 NOSIG RMK QFE744

VFR

-5°C / -9°C

[Viac]
Vietor 230º 8kt
Viditeľnosť >10km
Počasie -
Oblaky Clouds and Visibility OK
Tlak 1025
Zmeniť No Significant change
Nespracované UNEE 272000Z 23004MPS CAVOK M05/M09 Q1025 R23/CLRD60 NOSIG RMK QFE746

VFR

-4°C / -9°C

[Viac]
Vietor 230º 8kt
Viditeľnosť >10km
Počasie -
Oblaky Clouds and Visibility OK
Tlak 1025
Zmeniť No Significant change
Nespracované UNEE 271930Z 23004MPS CAVOK M04/M09 Q1025 R23/CLRD60 NOSIG RMK QFE746

VFR

-5°C / -9°C

[Viac]
Vietor 220º 8kt
Viditeľnosť >10km
Počasie -
Oblaky Clouds and Visibility OK
Tlak 1025
Zmeniť No Significant change
Nespracované UNEE 271900Z 22004MPS CAVOK M05/M09 Q1025 R23/CLRD60 NOSIG RMK QFE746

VFR

-6°C / °C

[Viac]
Vietor 220º 8kt
Viditeľnosť >10km
Počasie -
Oblaky Clouds and Visibility OK
Tlak 1025
Zmeniť No Significant change
Nespracované UNEE 271830Z 22004MPS CAVOK M06/M10 Q1025 R23/CLRD60 NOSIG RMK QFE746

VFR

-4°C / °C

[Viac]
Vietor 210º 6kt
Viditeľnosť >10km
Počasie -
Oblaky Clouds and Visibility OK
Tlak 1025
Zmeniť No Significant change
Nespracované UNEE 271800Z 21003MPS CAVOK M04/M10 Q1025 R23/CLRD60 NOSIG RMK QFE745

VFR

-4°C / °C

[Viac]
Vietor 210º 6kt
Viditeľnosť >10km
Počasie -
Oblaky Clouds and Visibility OK
Tlak 1025
Zmeniť No Significant change
Nespracované UNEE 271730Z 21003MPS CAVOK M04/M10 Q1025 R23/CLRD60 NOSIG RMK QFE745

VFR

-5°C / °C

[Viac]
Vietor 220º 8kt
Viditeľnosť >10km
Počasie -
Oblaky Clouds and Visibility OK
Tlak 1025
Zmeniť No Significant change
Nespracované UNEE 271700Z 22004MPS CAVOK M05/M10 Q1025 R23/CLRD60 NOSIG RMK QFE745

VFR

-5°C / °C

[Viac]
Vietor 230º 6kt
Viditeľnosť >10km
Počasie -
Oblaky Clouds and Visibility OK
Tlak 1025
Zmeniť No Significant change
Nespracované UNEE 271630Z 23003MPS CAVOK M05/M10 Q1025 R23/CLRD60 NOSIG RMK QFE745

VFR

-3°C / -9°C

[Viac]
Vietor 240º 6kt
Viditeľnosť >10km
Počasie -
Oblaky Clouds and Visibility OK
Tlak 1024
Zmeniť No Significant change
Nespracované UNEE 271600Z 24003MPS CAVOK M03/M09 Q1024 R23/CLRD60 NOSIG RMK QFE745

VFR

-2°C / -9°C

[Viac]
Vietor 240º 6kt
Viditeľnosť >10km
Počasie -
Oblaky Clouds and Visibility OK
Tlak 1024
Zmeniť No Significant change
Nespracované UNEE 271530Z 24003MPS CAVOK M02/M09 Q1024 R23/CLRD60 NOSIG RMK QFE745

VFR

-2°C / °C

[Viac]
Vietor 240º 8kt
Viditeľnosť >10km
Počasie -
Oblaky Clouds and Visibility OK
Tlak 1024
Zmeniť No Significant change
Nespracované UNEE 271500Z 24004MPS CAVOK M02/M10 Q1024 R23/CLRD60 NOSIG RMK QFE745

VFR

-2°C / °C

[Viac]
Vietor 230º 8kt
Viditeľnosť >10km
Počasie -
Oblaky Clouds and Visibility OK
Tlak 1024
Zmeniť No Significant change
Nespracované UNEE 271430Z 23004MPS CAVOK M02/M10 Q1024 R23/CLRD60 NOSIG RMK QFE745

VFR

-2°C / °C

[Viac]
Vietor 200º 4kt
Viditeľnosť >10km
Počasie -
Oblaky Clouds and Visibility OK
Tlak 1024
Zmeniť No Significant change
Nespracované UNEE 271400Z 20002MPS CAVOK M02/M10 Q1024 R23/CLRD60 NOSIG RMK QFE745

VFR

-2°C / °C

[Viac]
Vietor 200º 4kt
Viditeľnosť >10km
Počasie -
Oblaky Clouds and Visibility OK
Tlak 1024
Zmeniť No Significant change
Nespracované UNEE 271330Z 20002MPS CAVOK M02/M10 Q1024 R23/CLRD60 NOSIG RMK QFE745

VFR

-2°C / °C

[Viac]
Vietor 230º 4kt
Viditeľnosť >10km
Počasie -
Oblaky Clouds and Visibility OK
Tlak 1024
Zmeniť No Significant change
Nespracované UNEE 271300Z 23002MPS CAVOK M02/M10 Q1024 R23/CLRD60 NOSIG RMK QFE745

VFR

-2°C / °C

[Viac]
Vietor 190º 4kt
Viditeľnosť >10km
Počasie -
Oblaky Clouds and Visibility OK
Tlak 1023
Zmeniť No Significant change
Nespracované UNEE 271230Z 19002MPS CAVOK M02/M10 Q1023 R23/CLRD60 NOSIG RMK QFE744

VFR

-2°C / °C

[Viac]
Vietor 230º 6kt
Viditeľnosť >10km
Počasie -
Oblaky Clouds and Visibility OK
Tlak 1024
Zmeniť No Significant change
Nespracované UNEE 271200Z 23003MPS CAVOK M02/M11 Q1024 R23/CLRD60 NOSIG RMK QFE745

VFR

-2°C / °C

[Viac]
Vietor 230º 6kt
Viditeľnosť >10km
Počasie -
Oblaky Clouds and Visibility OK
Tlak 1024
Zmeniť No Significant change
Nespracované UNEE 271130Z 23003MPS CAVOK M02/M10 Q1024 R23/CLRD60 NOSIG RMK QFE745

VFR

-1°C / °C

[Viac]
Vietor 220º 6kt
Viditeľnosť >10km
Počasie -
Oblaky Clouds and Visibility OK
Tlak 1023
Zmeniť No Significant change
Nespracované UNEE 271100Z 22003MPS CAVOK M01/M11 Q1023 R23/CLRD60 NOSIG RMK QFE744

VFR

-1°C / °C

[Viac]
Vietor 240º 8kt
Viditeľnosť >10km
Počasie -
Oblaky Clouds and Visibility OK
Tlak 1023
Zmeniť No Significant change
Nespracované UNEE 271030Z 24004MPS CAVOK M01/M11 Q1023 R23/CLRD60 NOSIG RMK QFE744

VFR

0°C / °C

[Viac]
Vietor 230º 10kt
Viditeľnosť >10km
Počasie -
Oblaky Clouds and Visibility OK
Tlak 1023
Zmeniť No Significant change
Nespracované UNEE 271000Z 23005MPS CAVOK M00/M11 Q1023 R23/CLRD60 NOSIG RMK QFE744

VFR

0°C / °C

[Viac]
Vietor 250º 10kt
Viditeľnosť >10km
Počasie -
Oblaky Clouds and Visibility OK
Tlak 1023
Zmeniť No Significant change
Nespracované UNEE 270930Z 25005MPS CAVOK 00/M11 Q1023 R23/CLRD60 NOSIG RMK QFE744

VFR

1°C / °C

[Viac]
Vietor 250º 10kt
Viditeľnosť >10km
Počasie -
Oblaky Clouds and Visibility OK
Tlak 1023
Zmeniť No Significant change
Nespracované UNEE 270900Z 25005MPS CAVOK 01/M11 Q1023 R23/CLRD60 NOSIG RMK QFE744

VFR

1°C / °C

[Viac]
Vietor 250º 10kt
Viditeľnosť >10km
Počasie -
Oblaky Clouds and Visibility OK
Tlak 1023
Zmeniť No Significant change
Nespracované UNEE 270830Z 25005MPS CAVOK 01/M11 Q1023 R23/CLRD60 NOSIG RMK QFE744

Správy TAF pre lokalitu 55.27°S 86.11°V (UNEE)

From till


From till Wind 220º 6kt. Gust 16kt. Visibility 10km or more. Scattered Clouds 4000ft.
Becoming from till Wind 170º 10kt. Gust 21kt. Visibility 10km or more. Scattered Clouds 4000ft.

Nespracované: TAF UNEE 271700Z 2718/2818 22003G08MPS 9999 SCT040 BECMG 2808/2811 17005G11MPS

Aktuálne satelitné snímky a snímky zrážok pre lokalitu 55.27°S 86.11°V

Značka polohy je umiestnená na55.27°S 86.11°V. [Viac]

Satelitné snímky zhotovované v reálnom čase využívajú viditeľné svetlo počas dňa a infračervené žiarenie počas noci. Vzhľadom na to, že infračervené žiarenie zisťuje teplotné rozdiely, snímka v noci nie je tmavá. Nízke oblaky a hmlu je, žiaľ, ťažké odlíšiť od prízemných teplôt, preto môžu byť počas noci takmer neviditeľné. Meteosat satelitné snímky pre Európu sú aktualizované v reálnom čase každých 5 minút. Snímky z GOES-16/GOES-17 (Severná a Južná Amerika) a Himawari (Ázia) sú aktualizované každých 10 minút.

Copyright 2021 EUMETSAT / meteoblue. / Copyright 2021 meteoblue

Radar a krátkodobá predpoveď zrážok pre 55.27°S 86.11°V

Mrholenie
Slabý
Mierne
Ťažké
Veľmi ťažké
Krúpy

Značka polohy je umiestnená na 55.27°S 86.11°V. Táto animácia ukazuje zrážky pozorované radarom za poslednú hodinu a tiež 1h predpoveď. Mrholenie alebo slabé sneženie môže byť pre radar neviditeľné. Intenzita zrážok je farebne označená od svetlomodrej po oranžovú.